Huvudsida
METAR-TAF:

METAR-TAF

Flygplatser :

Vilhelmina flygplats

Vilhelmina, Sverige

latitud: 64-34-44N, longitud: 016-50-00E, höjd: 347 m

Aktuellt väderrapport

Denna rapport gjordes för 26 minuter sedan, klockan 17:50 UTC
Vind 4 kt från ost/sydost
Temperatur -6°C
Fuktighet 93%
Tryck 1022 hPa
Sikt: 9000 m
Mulet på en höjd av 500 ft
fuktdis

METAR: ESNV 161750Z 12004KT 9000 BR OVC005 M06/M07 Q1022

Tid: 19:16 (18:16 UTC)


TAF: saknas

Aktuella väderrapporter och prognoser från 4000 flygplatser (METAR- och TAF-rapporter).

De tillgängliga stationerna syns som gula och röda prickar på kartan.

För musen över prickarna för att se namnen på stationerna.

Klicka sedan för att få väderrapporter och prognoser.

För att ändra kartan: Klicka på de gröna knapparna med ett svart kors på för att zooma in; den gröna knappen med ett streck på för att zooma ut; eller på de gröna pilarna för angränsande kartor.


METAR-TAF: